Time,TemperatureF,DewpointF,PressureIn,WindDirection,WindDirectionDegrees,WindSpeedMPH,WindSpeedGustMPH,Humidity,HourlyPrecipIn,Conditions,Clouds,dailyrainin,SoftwareType,DateUTC
2013-01-01 00:00:00,26.2,18.1,29.73,SW,223,1.1,1.1,71,0.00,RA,,0.00,WeatherDisplay:10.37,2013-01-01 05:00:00,
2013-01-01 00:01:00,26.3,19.1,29.71,SW,223,1.1,1.1,74,0.00,RA,,0.00,WeatherDisplay:10.37,2013-01-01 05:01:00,
2013-01-01 00:02:00,26.3,19.1,29.71,SW,223,1.1,1.1,74,0.00,RA,,0.00,WeatherDisplay:10.37,2013-01-01 05:02:00,
2013-01-01 00:07:00,26.2,19.0,29.71,SW,223,1.1,0.0,74,0.00,OVC,,0.00,WeatherDisplay:10.37,2013-01-01 05:07:00,
2013-01-01 00:12:00,26.3,19.1,29.71,SW,223,1.1,1.1,74,0.00,OVC,,0.00,WeatherDisplay:10.37,2013-01-01 05:12:00,
2013-01-01 00:17:00,26.2,19.0,29.71,SW,223,2.3,2.3,74,0.00,OVC,,0.00,WeatherDisplay:10.37,2013-01-01 05:17:00,
2013-01-01 00:22:00,26.1,18.9,29.71,SW,223,1.1,1.1,74,0.00,OVC,,0.00,WeatherDisplay:10.37,2013-01-01 05:22:00,
2013-01-01 00:27:00,26.2,19.0,29.71,SW,223,1.1,1.1,74,0.00,OVC,,0.00,WeatherDisplay:10.37,2013-01-01 05:27:00,
2013-01-01 00:32:00,26.2,19.0,29.71,SW,223,1.1,1.1,74,0.00,OVC,,0.00,WeatherDisplay:10.37,2013-01-01 05:32:00,
2013-01-01 00:37:00,26.1,18.9,29.71,SW,223,1.1,0.0,74,0.00,OVC,,0.00,WeatherDisplay:10.37,2013-01-01 05:37:00,
2013-01-01 00:42:00,26.1,18.9,29.71,SW,223,2.3,2.3,74,0.00,OVC,,0.00,WeatherDisplay:10.37,2013-01-01 05:42:00,
2013-01-01 00:47:00,26.3,19.1,29.71,SW,223,2.3,2.3,74,0.00,OVC,,0.00,WeatherDisplay:10.37,2013-01-01 05:47:00,
2013-01-01 00:52:00,26.4,19.2,29.71,SW,223,2.3,2.3,74,0.00,OVC,,0.00,WeatherDisplay:10.37,2013-01-01 05:52:00,
2013-01-01 00:57:00,26.5,19.3,29.71,SW,223,2.3,2.3,74,0.00,OVC,,0.00,WeatherDisplay:10.37,2013-01-01 05:57:00,
2013-01-01 01:02:00,26.7,19.5,29.69,SW,223,2.3,2.3,74,0.00,OVC,,0.00,WeatherDisplay:10.37,2013-01-01 06:02:00,
2013-01-01 01:07:00,26.8,19.6,29.69,SW,223,3.5,3.5,74,0.00,OVC,,0.00,WeatherDisplay:10.37,2013-01-01 06:07:00,
2013-01-01 01:12:00,26.9,19.7,29.69,SW,223,3.5,3.5,74,0.00,OVC,,0.00,WeatherDisplay:10.37,2013-01-01 06:12:00,
2013-01-01 01:17:00,27.2,20.0,29.69,SW,225,3.5,3.5,74,0.00,OVC,,0.00,WeatherDisplay:10.37,2013-01-01 06:17:00,
2013-01-01 01:22:00,27.2,20.0,29.69,SW,225,3.5,3.5,74,0.00,OVC,,0.00,WeatherDisplay:10.37,2013-01-01 06:22:00,
2013-01-01 01:27:00,27.4,20.2,29.69,SW,225,3.5,3.5,74,0.00,OVC,,0.00,WeatherDisplay:10.37,2013-01-01 06:27:00,
2013-01-01 01:32:00,27.4,20.2,29.69,SW,226,2.3,2.3,74,0.00,OVC,,0.00,WeatherDisplay:10.37,2013-01-01 06:32:00,
2013-01-01 01:37:00,27.7,20.5,29.69,SW,226,2.3,2.3,74,0.00,OVC,,0.00,WeatherDisplay:10.37,2013-01-01 06:37:00,
2013-01-01 01:42:00,27.7,20.5,29.69,SW,220,3.5,3.5,74,0.00,OVC,,0.00,WeatherDisplay:10.37,2013-01-01 06:42:00,
2013-01-01 01:47:00,27.9,20.7,29.69,SW,220,3.5,3.5,74,0.00,OVC,,0.00,WeatherDisplay:10.37,2013-01-01 06:47:00,
2013-01-01 01:52:00,27.8,20.6,29.69,SW,220,2.3,2.3,74,0.00,OVC,,0.00,WeatherDisplay:10.37,2013-01-01 06:52:00,
2013-01-01 01:57:00,27.8,20.6,29.69,SW,220,2.3,2.3,74,0.00,OVC,,0.00,WeatherDisplay:10.37,2013-01-01 06:57:00,
2013-01-01 02:02:00,27.9,19.7,29.69,West,272,3.5,3.5,71,0.00,OVC,,0.00,WeatherDisplay:10.37,2013-01-01 07:02:00,
2013-01-01 02:07:00,27.9,19.7,29.69,West,280,2.3,2.3,71,0.00,OVC,,0.00,WeatherDisplay:10.37,2013-01-01 07:07:00,
2013-01-01 02:12:00,28.1,19.9,29.69,West,280,2.3,2.3,71,0.00,OVC,,0.00,WeatherDisplay:10.37,2013-01-01 07:12:00,
2013-01-01 02:17:00,27.8,19.6,29.69,West,280,2.3,2.3,71,0.00,OVC,,0.00,WeatherDisplay:10.37,2013-01-01 07:17:00,
2013-01-01 02:22:00,27.9,19.7,29.69,West,280,3.5,3.5,71,0.00,OVC,,0.00,WeatherDisplay:10.37,2013-01-01 07:22:00,
2013-01-01 02:27:00,27.9,19.7,29.69,West,280,3.5,3.5,71,0.00,OVC,,0.00,WeatherDisplay:10.37,2013-01-01 07:27:00,
2013-01-01 02:32:00,27.7,19.5,29.69,West,280,2.3,2.3,71,0.00,OVC,,0.00,WeatherDisplay:10.37,2013-01-01 07:32:00,
2013-01-01 02:37:00,27.6,19.4,29.69,West,280,1.1,1.1,71,0.00,OVC,,0.00,WeatherDisplay:10.37,2013-01-01 07:37:00,
2013-01-01 02:42:00,27.1,18.9,29.69,West,280,0.0,0.0,71,0.00,OVC,,0.00,WeatherDisplay:10.37,2013-01-01 07:42:00,
2013-01-01 02:47:00,26.7,18.6,29.69,West,280,1.1,1.1,71,0.00,OVC,,0.00,WeatherDisplay:10.37,2013-01-01 07:47:00,
2013-01-01 02:52:00,26.9,18.7,29.69,West,280,1.1,1.1,71,0.00,OVC,,0.00,WeatherDisplay:10.37,2013-01-01 07:52:00,
2013-01-01 02:57:00,26.9,18.7,29.69,West,280,1.1,1.1,71,0.00,OVC,,0.00,WeatherDisplay:10.37,2013-01-01 07:57:00,
2013-01-01 03:02:00,26.8,19.0,29.67,West,280,0.0,0.0,72,0.00,OVC,,0.00,WeatherDisplay:10.37,2013-01-01 08:02:00,
2013-01-01 03:07:00,26.7,18.9,29.67,West,280,0.0,0.0,72,0.00,OVC,,0.00,WeatherDisplay:10.37,2013-01-01 08:07:00,
2013-01-01 03:12:00,26.8,19.0,29.67,West,280,0.0,0.0,72,0.00,OVC,,0.00,WeatherDisplay:10.37,2013-01-01 08:12:00,
2013-01-01 03:17:00,26.8,19.0,29.67,West,280,1.1,1.1,72,0.00,OVC,,0.00,WeatherDisplay:10.37,2013-01-01 08:17:00,
2013-01-01 03:22:00,27.2,19.4,29.67,West,280,2.3,2.3,72,0.00,OVC,,0.00,WeatherDisplay:10.37,2013-01-01 08:22:00,
2013-01-01 03:27:00,27.0,19.2,29.67,West,280,1.1,1.1,72,0.00,OVC,,0.00,WeatherDisplay:10.37,2013-01-01 08:27:00,
2013-01-01 03:32:00,27.4,19.6,29.67,West,280,1.1,1.1,72,0.00,OVC,,0.00,WeatherDisplay:10.37,2013-01-01 08:32:00,
2013-01-01 03:37:00,26.9,19.1,29.67,West,280,1.1,1.1,72,0.00,OVC,,0.00,WeatherDisplay:10.37,2013-01-01 08:37:00,
2013-01-01 03:42:00,26.7,18.9,29.67,West,280,1.1,1.1,72,0.00,OVC,,0.00,WeatherDisplay:10.37,2013-01-01 08:42:00,
2013-01-01 03:47:00,27.6,19.8,29.67,West,280,3.5,3.5,72,0.00,OVC,,0.00,WeatherDisplay:10.37,2013-01-01 08:47:00,
2013-01-01 03:52:00,27.1,19.3,29.67,West,280,0.0,0.0,72,0.00,OVC,,0.00,WeatherDisplay:10.37,2013-01-01 08:52:00,
2013-01-01 03:57:00,27.1,19.3,29.67,West,280,1.1,1.1,72,0.00,OVC,,0.00,WeatherDisplay:10.37,2013-01-01 08:57:00,
2013-01-01 04:02:00,27.2,20.0,29.66,West,280,0.0,0.0,74,0.00,OVC,,0.00,WeatherDisplay:10.37,2013-01-01 09:02:00,
2013-01-01 04:07:00,27.0,19.8,29.66,West,280,1.1,1.1,74,0.00,OVC,,0.00,WeatherDisplay:10.37,2013-01-01 09:07:00,
2013-01-01 04:12:00,26.7,19.5,29.66,West,280,2.3,0.0,74,0.00,OVC,,0.00,WeatherDisplay:10.37,2013-01-01 09:12:00,
2013-01-01 04:17:00,27.1,19.9,29.66,West,280,2.3,2.3,74,0.00,OVC,,0.00,WeatherDisplay:10.37,2013-01-01 09:17:00,
2013-01-01 04:22:00,26.6,19.4,29.66,West,280,2.3,2.3,74,0.00,OVC,,0.00,WeatherDisplay:10.37,2013-01-01 09:22:00,
2013-01-01 04:27:00,26.6,19.4,29.66,West,280,1.1,1.1,74,0.00,OVC,,0.00,WeatherDisplay:10.37,2013-01-01 09:27:00,
2013-01-01 04:32:00,26.6,19.4,29.66,West,280,1.1,1.1,74,0.00,OVC,,0.00,WeatherDisplay:10.37,2013-01-01 09:32:00,
2013-01-01 04:37:00,26.1,18.9,29.66,West,280,1.1,1.1,74,0.00,OVC,,0.00,WeatherDisplay:10.37,2013-01-01 09:37:00,
2013-01-01 04:42:00,25.8,18.7,29.66,West,280,2.3,2.3,74,0.00,OVC,,0.00,WeatherDisplay:10.37,2013-01-01 09:42:00,
2013-01-01 04:47:00,27.8,20.6,29.66,West,280,3.5,3.5,74,0.00,OVC,,0.00,WeatherDisplay:10.37,2013-01-01 09:47:00,
2013-01-01 04:52:00,26.4,19.2,29.66,West,280,2.0,2.0,74,0.00,OVC,,0.00,WeatherDisplay:10.37,2013-01-01 09:52:00,
2013-01-01 04:57:00,26.3,19.1,29.66,West,280,1.1,0.0,74,0.00,OVC,,0.00,WeatherDisplay:10.37,2013-01-01 09:57:00,
2013-01-01 05:02:00,26.7,20.8,29.67,West,280,1.1,1.1,78,0.00,OVC,,0.00,WeatherDisplay:10.37,2013-01-01 10:02:00,
2013-01-01 05:07:00,26.4,20.5,29.67,West,280,0.0,0.0,78,0.00,OVC,,0.00,WeatherDisplay:10.37,2013-01-01 10:07:00,
2013-01-01 05:12:00,26.4,20.5,29.67,West,280,1.1,1.1,78,0.00,OVC,,0.00,WeatherDisplay:10.37,2013-01-01 10:12:00,
2013-01-01 05:17:00,26.3,20.4,29.67,West,280,0.0,0.1,78,0.00,OVC,,0.00,WeatherDisplay:10.37,2013-01-01 10:17:00,
2013-01-01 05:22:00,26.6,20.7,29.67,West,280,0.0,0.0,78,0.00,OVC,,0.00,WeatherDisplay:10.37,2013-01-01 10:22:00,
2013-01-01 05:27:00,26.2,20.3,29.67,West,280,1.0,1.0,78,0.00,OVC,,0.00,WeatherDisplay:10.37,2013-01-01 10:27:00,
2013-01-01 05:32:00,26.5,20.6,29.67,West,280,0.0,0.0,78,0.00,OVC,,0.00,WeatherDisplay:10.37,2013-01-01 10:32:00,
2013-01-01 05:37:00,27.4,21.4,29.67,West,280,2.3,2.3,78,0.00,OVC,,0.00,WeatherDisplay:10.37,2013-01-01 10:37:00,
2013-01-01 05:42:00,26.8,20.9,29.67,West,280,1.1,0.0,78,0.00,OVC,,0.00,WeatherDisplay:10.37,2013-01-01 10:42:00,
2013-01-01 05:47:00,27.9,21.9,29.67,West,280,3.5,3.5,78,0.00,OVC,,0.00,WeatherDisplay:10.37,2013-01-01 10:47:00,
2013-01-01 05:52:00,28.3,22.3,29.67,West,280,2.3,2.3,78,0.00,OVC,,0.00,WeatherDisplay:10.37,2013-01-01 10:52:00,
2013-01-01 05:57:00,28.4,22.4,29.67,West,280,3.5,3.5,78,0.00,OVC,,0.00,WeatherDisplay:10.37,2013-01-01 10:57:00,
2013-01-01 06:02:00,28.4,19.5,29.68,WNW,286,5.0,5.0,69,0.00,BKN,,0.00,WeatherDisplay:10.37,2013-01-01 11:02:00,
2013-01-01 06:07:00,29.0,20.1,29.68,WNW,282,6.0,6.0,69,0.00,BKN,,0.00,WeatherDisplay:10.37,2013-01-01 11:07:00,
2013-01-01 06:12:00,28.7,19.8,29.68,West,273,6.9,6.9,69,0.00,BKN,,0.00,WeatherDisplay:10.37,2013-01-01 11:12:00,
2013-01-01 06:17:00,28.5,19.6,29.68,WNW,285,5.8,5.8,69,0.00,BKN,,0.00,WeatherDisplay:10.37,2013-01-01 11:17:00,
2013-01-01 06:22:00,28.6,19.7,29.68,WSW,244,4.6,4.6,69,0.00,BKN,,0.00,WeatherDisplay:10.37,2013-01-01 11:22:00,
2013-01-01 06:27:00,28.4,19.5,29.68,NW,312,4.6,4.6,69,0.00,BKN,,0.00,WeatherDisplay:10.37,2013-01-01 11:27:00,
2013-01-01 06:32:00,28.3,19.4,29.68,West,276,4.6,4.6,69,0.00,BKN,,0.00,WeatherDisplay:10.37,2013-01-01 11:32:00,
2013-01-01 06:37:00,28.1,19.2,29.68,NNW,338,3.5,3.5,69,0.00,BKN,,0.00,WeatherDisplay:10.37,2013-01-01 11:37:00,
2013-01-01 06:42:00,28.1,19.2,29.68,NW,310,3.5,3.5,69,0.00,BKN,,0.00,WeatherDisplay:10.37,2013-01-01 11:42:00,
2013-01-01 06:47:00,27.9,19.0,29.68,WNW,299,4.0,4.0,69,0.00,BKN,,0.00,WeatherDisplay:10.37,2013-01-01 11:47:00,
2013-01-01 06:52:00,28.4,19.5,29.68,WNW,284,8.1,8.1,69,0.00,BKN,,0.00,WeatherDisplay:10.37,2013-01-01 11:52:00,
2013-01-01 06:57:00,28.1,19.2,29.68,NW,312,4.0,4.0,69,0.00,BKN,,0.00,WeatherDisplay:10.37,2013-01-01 11:57:00,
2013-01-01 07:02:00,28.0,15.9,29.70,WNW,291,5.8,5.8,60,0.00,BKN,,0.00,WeatherDisplay:10.37,2013-01-01 12:02:00,
2013-01-01 07:07:00,28.0,15.9,29.70,West,275,5.0,5.0,60,0.00,BKN,,0.00,WeatherDisplay:10.37,2013-01-01 12:07:00,
2013-01-01 07:12:00,28.0,15.9,29.70,WNW,284,4.0,4.0,60,0.00,BKN,,0.00,WeatherDisplay:10.37,2013-01-01 12:12:00,
2013-01-01 07:17:00,28.2,16.1,29.70,WNW,300,8.1,8.1,60,0.00,BKN,,0.00,WeatherDisplay:10.37,2013-01-01 12:17:00,
2013-01-01 07:22:00,27.8,15.7,29.70,WNW,292,4.6,4.6,60,0.00,BKN,,0.00,WeatherDisplay:10.37,2013-01-01 12:22:00,
2013-01-01 07:27:00,27.9,15.8,29.70,NW,315,4.0,4.0,60,0.00,BKN,,0.00,WeatherDisplay:10.37,2013-01-01 12:27:00,
2013-01-01 07:32:00,28.1,16.0,29.70,NW,313,5.8,5.8,60,0.00,BKN,,0.00,WeatherDisplay:10.37,2013-01-01 12:32:00,
2013-01-01 07:37:00,28.0,15.9,29.70,NW,317,5.8,5.8,60,0.00,BKN,,0.00,WeatherDisplay:10.37,2013-01-01 12:37:00,
2013-01-01 07:42:00,28.0,15.9,29.70,NW,308,4.6,4.6,60,0.00,BKN,,0.00,WeatherDisplay:10.37,2013-01-01 12:42:00,
2013-01-01 07:47:00,27.6,15.5,29.70,NW,309,8.0,8.0,60,0.00,BKN,,0.00,WeatherDisplay:10.37,2013-01-01 12:47:00,
2013-01-01 07:52:00,27.1,15.0,29.70,NW,309,8.1,8.1,60,0.00,BKN,,0.00,WeatherDisplay:10.37,2013-01-01 12:52:00,
2013-01-01 07:57:00,26.8,14.8,29.70,WNW,299,6.0,6.0,60,0.00,BKN,,0.00,WeatherDisplay:10.37,2013-01-01 12:57:00,
2013-01-01 08:02:00,26.8,11.9,29.73,NW,309,4.6,4.6,53,0.00,CLR,,0.00,WeatherDisplay:10.37,2013-01-01 13:02:00,
2013-01-01 08:07:00,26.7,11.8,29.73,NW,309,3.5,3.5,53,0.00,CLR,,0.00,WeatherDisplay:10.37,2013-01-01 13:07:00,
2013-01-01 08:12:00,26.5,11.7,29.73,NW,309,8.0,8.0,53,0.00,CLR,,0.00,WeatherDisplay:10.37,2013-01-01 13:12:00,
2013-01-01 08:17:00,26.0,11.2,29.73,WNW,300,3.5,3.6,53,0.00,CLR,,0.00,WeatherDisplay:10.37,2013-01-01 13:17:00,
2013-01-01 08:22:00,25.8,11.0,29.73,NNW,336,4.6,4.6,53,0.00,CLR,,0.00,WeatherDisplay:10.37,2013-01-01 13:22:00,
2013-01-01 08:27:00,25.5,10.7,29.73,NW,306,3.5,3.5,53,0.00,CLR,,0.00,WeatherDisplay:10.37,2013-01-01 13:27:00,
2013-01-01 08:32:00,25.1,10.3,29.73,NNW,345,8.1,8.1,53,0.00,CLR,,0.00,WeatherDisplay:10.37,2013-01-01 13:32:00,
2013-01-01 08:37:00,24.9,10.2,29.73,NW,309,9.2,9.2,53,0.00,CLR,,0.00,WeatherDisplay:10.37,2013-01-01 13:37:00,
2013-01-01 08:42:00,24.9,10.2,29.73,WNW,291,6.0,6.0,53,0.00,CLR,,0.00,WeatherDisplay:10.37,2013-01-01 13:42:00,
2013-01-01 08:47:00,24.8,10.1,29.73,WNW,301,6.9,6.9,53,0.00,CLR,,0.00,WeatherDisplay:10.37,2013-01-01 13:47:00,
2013-01-01 08:52:00,24.7,10.0,29.73,WNW,290,9.2,9.2,53,0.00,CLR,,0.00,WeatherDisplay:10.37,2013-01-01 13:52:00,
2013-01-01 08:57:00,24.6,9.9,29.73,NW,305,6.9,6.9,53,0.00,CLR,,0.00,WeatherDisplay:10.37,2013-01-01 13:57:00,
2013-01-01 09:02:00,24.3,6.5,29.73,WNW,295,9.2,9.2,46,0.00,OVC,,0.00,WeatherDisplay:10.37,2013-01-01 14:02:00,
2013-01-01 09:07:00,24.3,6.5,29.73,WNW,289,3.5,3.5,46,0.00,OVC,,0.00,WeatherDisplay:10.37,2013-01-01 14:07:00,
2013-01-01 09:12:00,24.0,6.2,29.73,WNW,297,5.8,5.8,46,0.00,OVC,,0.00,WeatherDisplay:10.37,2013-01-01 14:12:00,
2013-01-01 09:17:00,24.4,6.6,29.73,WNW,298,2.3,2.3,46,0.00,OVC,,0.00,WeatherDisplay:10.37,2013-01-01 14:17:00,
2013-01-01 09:22:00,23.8,6.0,29.73,NW,313,3.5,3.5,46,0.00,OVC,,0.00,WeatherDisplay:10.37,2013-01-01 14:22:00,
2013-01-01 09:27:00,23.8,6.0,29.73,NW,306,4.0,4.0,46,0.00,OVC,,0.00,WeatherDisplay:10.37,2013-01-01 14:27:00,
2013-01-01 09:32:00,23.6,5.8,29.73,WNW,286,5.8,5.8,46,0.00,OVC,,0.00,WeatherDisplay:10.37,2013-01-01 14:32:00,
2013-01-01 09:37:00,23.5,5.7,29.73,WNW,282,7.0,7.0,46,0.00,OVC,,0.00,WeatherDisplay:10.37,2013-01-01 14:37:00,
2013-01-01 09:42:00,23.7,5.9,29.73,NW,306,6.0,6.0,46,0.00,OVC,,0.00,WeatherDisplay:10.37,2013-01-01 14:42:00,
2013-01-01 09:47:00,23.4,5.6,29.73,NW,309,8.0,8.0,46,0.00,OVC,,0.00,WeatherDisplay:10.37,2013-01-01 14:47:00,
2013-01-01 09:52:00,23.5,5.7,29.73,NW,309,3.5,3.5,46,0.00,OVC,,0.00,WeatherDisplay:10.37,2013-01-01 14:52:00,
2013-01-01 09:57:00,23.5,5.7,29.73,WNW,301,4.6,4.6,46,0.00,OVC,,0.00,WeatherDisplay:10.37,2013-01-01 14:57:00,
2013-01-01 10:02:00,23.5,12.4,29.77,WNW,301,3.5,3.5,62,0.00,OVC,,0.00,WeatherDisplay:10.37,2013-01-01 15:02:00,
2013-01-01 10:07:00,23.8,12.7,29.77,NW,313,5.8,5.8,62,0.00,OVC,,0.00,WeatherDisplay:10.37,2013-01-01 15:07:00,
2013-01-01 10:12:00,23.9,12.8,29.77,NW,309,4.6,4.6,62,0.00,OVC,,0.00,WeatherDisplay:10.37,2013-01-01 15:12:00,
2013-01-01 10:17:00,24.1,12.9,29.77,NW,305,4.0,4.0,62,0.00,OVC,,0.00,WeatherDisplay:10.37,2013-01-01 15:17:00,
2013-01-01 10:22:00,24.6,13.4,29.77,NNW,329,3.5,3.5,62,0.00,OVC,,0.00,WeatherDisplay:10.37,2013-01-01 15:22:00,
2013-01-01 10:27:00,24.0,12.9,29.77,NW,326,3.5,3.5,62,0.00,OVC,,0.00,WeatherDisplay:10.37,2013-01-01 15:27:00,
2013-01-01 10:32:00,23.5,12.4,29.77,WSW,255,9.2,9.2,62,0.00,OVC,,0.00,WeatherDisplay:10.37,2013-01-01 15:32:00,
2013-01-01 10:37:00,23.5,12.4,29.77,WNW,282,11.5,11.5,62,0.00,OVC,,0.00,WeatherDisplay:10.37,2013-01-01 15:37:00,
2013-01-01 10:42:00,23.9,12.8,29.77,NW,312,5.8,5.8,62,0.00,OVC,,0.00,WeatherDisplay:10.37,2013-01-01 15:42:00,
2013-01-01 10:47:00,23.5,12.4,29.77,WNW,296,11.0,11.0,62,0.00,OVC,,0.00,WeatherDisplay:10.37,2013-01-01 15:47:00,
2013-01-01 10:52:00,23.3,12.2,29.77,NNW,327,4.6,4.6,62,0.00,OVC,,0.00,WeatherDisplay:10.37,2013-01-01 15:52:00,
2013-01-01 10:57:00,22.9,11.8,29.77,NW,306,11.5,11.5,62,0.00,OVC,,0.00,WeatherDisplay:10.37,2013-01-01 15:57:00,
2013-01-01 11:02:00,23.3,11.4,29.78,WNW,303,4.0,4.0,60,0.00,OVC,,0.00,WeatherDisplay:10.37,2013-01-01 16:02:00,
2013-01-01 11:07:00,23.7,11.8,29.78,WNW,301,5.0,5.0,60,0.00,OVC,,0.00,WeatherDisplay:10.37,2013-01-01 16:07:00,
2013-01-01 11:12:00,23.6,11.7,29.78,NW,313,6.9,6.9,60,0.00,OVC,,0.00,WeatherDisplay:10.37,2013-01-01 16:12:00,
2013-01-01 11:17:00,23.2,11.4,29.78,WNW,301,5.8,5.8,60,0.00,OVC,,0.00,WeatherDisplay:10.37,2013-01-01 16:17:00,
2013-01-01 11:22:00,23.2,11.4,29.78,NW,320,6.9,6.9,60,0.00,OVC,,0.00,WeatherDisplay:10.37,2013-01-01 16:22:00,
2013-01-01 11:27:00,22.7,10.9,29.78,NW,304,8.1,8.1,60,0.00,OVC,,0.00,WeatherDisplay:10.37,2013-01-01 16:27:00,
2013-01-01 11:32:00,22.1,10.3,29.78,WNW,293,8.1,8.1,60,0.00,OVC,,0.00,WeatherDisplay:10.37,2013-01-01 16:32:00,
2013-01-01 11:37:00,22.5,10.7,29.78,WNW,285,5.8,5.8,60,0.00,OVC,,0.00,WeatherDisplay:10.37,2013-01-01 16:37:00,
2013-01-01 11:42:00,22.2,10.4,29.78,West,279,8.1,8.1,60,0.00,OVC,,0.00,WeatherDisplay:10.37,2013-01-01 16:42:00,
2013-01-01 11:47:00,22.3,10.5,29.78,NW,316,8.1,8.1,60,0.00,OVC,,0.00,WeatherDisplay:10.37,2013-01-01 16:47:00,
2013-01-01 11:52:00,22.2,10.4,29.78,WNW,285,6.9,6.9,60,0.00,OVC,,0.00,WeatherDisplay:10.37,2013-01-01 16:52:00,
2013-01-01 11:57:00,22.2,10.4,29.78,NW,308,6.0,6.0,60,0.00,OVC,,0.00,WeatherDisplay:10.37,2013-01-01 16:57:00,
2013-01-01 12:02:00,22.8,11.0,29.77,NW,311,3.5,3.5,60,0.00,-SN,,0.00,WeatherDisplay:10.37,2013-01-01 17:02:00,
2013-01-01 12:07:00,22.3,10.5,29.77,WNW,291,5.8,5.8,60,0.00,-SN,,0.00,WeatherDisplay:10.37,2013-01-01 17:07:00,
2013-01-01 12:12:00,22.7,10.9,29.77,NW,318,4.0,4.0,60,0.00,-SN,,0.00,WeatherDisplay:10.37,2013-01-01 17:12:00,
2013-01-01 12:17:00,22.9,11.1,29.77,NW,317,5.8,5.8,60,0.00,-SN,,0.00,WeatherDisplay:10.37,2013-01-01 17:17:00,
2013-01-01 12:22:00,22.8,11.0,29.77,NW,310,4.6,4.6,60,0.00,-SN,,0.00,WeatherDisplay:10.37,2013-01-01 17:22:00,
2013-01-01 12:28:00,22.7,10.9,29.77,West,262,5.8,5.8,60,0.00,-SN,,0.00,WeatherDisplay:10.37,2013-01-01 17:28:00,
2013-01-01 12:33:00,22.7,10.9,29.77,NW,304,4.6,4.6,60,0.00,-SN,,0.00,WeatherDisplay:10.37,2013-01-01 17:33:00,
2013-01-01 12:38:00,22.7,10.9,29.77,WNW,302,3.5,3.5,60,0.00,-SN,,0.00,WeatherDisplay:10.37,2013-01-01 17:38:00,
2013-01-01 12:43:00,22.4,10.6,29.77,WNW,301,3.5,3.5,60,0.00,-SN,,0.00,WeatherDisplay:10.37,2013-01-01 17:43:00,
2013-01-01 12:48:00,21.8,10.0,29.77,NW,319,8.1,8.1,60,0.00,-SN,,0.00,WeatherDisplay:10.37,2013-01-01 17:48:00,
2013-01-01 12:53:00,21.6,9.8,29.77,NW,314,11.5,11.5,60,0.00,-SN,,0.00,WeatherDisplay:10.37,2013-01-01 17:53:00,
2013-01-01 12:58:00,22.0,10.2,29.77,NW,315,9.2,9.2,60,0.00,-SN,,0.00,WeatherDisplay:10.37,2013-01-01 17:58:00,
2013-01-01 13:03:00,22.2,7.2,29.75,NW,307,8.1,8.1,52,0.00,OVC,,0.00,WeatherDisplay:10.37,2013-01-01 18:03:00,
2013-01-01 13:08:00,23.0,8.0,29.75,WNW,299,8.0,8.0,52,0.00,OVC,,0.00,WeatherDisplay:10.37,2013-01-01 18:08:00,
2013-01-01 13:13:00,23.8,8.7,29.75,NW,308,3.5,3.5,52,0.00,OVC,,0.00,WeatherDisplay:10.37,2013-01-01 18:13:00,
2013-01-01 13:18:00,23.1,8.1,29.75,WNW,300,6.9,6.9,52,0.00,OVC,,0.00,WeatherDisplay:10.37,2013-01-01 18:18:00,
2013-01-01 13:23:00,22.4,7.4,29.75,WNW,291,10.4,10.4,52,0.00,OVC,,0.00,WeatherDisplay:10.37,2013-01-01 18:23:00,
2013-01-01 13:28:00,23.1,8.1,29.75,NW,309,6.0,6.0,52,0.00,OVC,,0.00,WeatherDisplay:10.37,2013-01-01 18:28:00,
2013-01-01 13:33:00,22.5,7.5,29.75,NW,310,5.8,5.8,52,0.00,OVC,,0.00,WeatherDisplay:10.37,2013-01-01 18:33:00,
2013-01-01 13:38:00,22.7,7.7,29.75,NW,316,4.6,4.6,52,0.00,OVC,,0.00,WeatherDisplay:10.37,2013-01-01 18:38:00,
2013-01-01 13:43:00,22.2,7.2,29.75,West,259,6.0,6.0,52,0.00,OVC,,0.00,WeatherDisplay:10.37,2013-01-01 18:43:00,
2013-01-01 13:48:00,21.9,6.9,29.75,WNW,302,3.5,3.5,52,0.00,OVC,,0.00,WeatherDisplay:10.37,2013-01-01 18:48:00,
2013-01-01 13:53:00,21.4,6.5,29.75,WNW,285,6.9,6.9,52,0.00,OVC,,0.00,WeatherDisplay:10.37,2013-01-01 18:53:00,
2013-01-01 13:58:00,21.6,6.7,29.75,NW,311,4.6,4.6,52,0.00,OVC,,0.00,WeatherDisplay:10.37,2013-01-01 18:58:00,
2013-01-01 14:03:00,21.7,3.1,29.73,WNW,293,6.9,6.9,44,0.00,FEW,,0.00,WeatherDisplay:10.37,2013-01-01 19:03:00,
2013-01-01 14:08:00,21.9,3.3,29.73,NW,307,7.0,7.0,44,0.00,FEW,,0.00,WeatherDisplay:10.37,2013-01-01 19:08:00,
2013-01-01 14:13:00,21.8,3.2,29.73,NW,323,4.0,4.0,44,0.00,FEW,,0.00,WeatherDisplay:10.37,2013-01-01 19:13:00,
2013-01-01 14:18:00,21.6,3.0,29.73,WNW,301,6.9,6.9,44,0.00,FEW,,0.00,WeatherDisplay:10.37,2013-01-01 19:18:00,
2013-01-01 14:23:00,21.4,2.8,29.73,NW,305,4.6,4.6,44,0.00,FEW,,0.00,WeatherDisplay:10.37,2013-01-01 19:23:00,
2013-01-01 14:28:00,21.9,3.3,29.73,NW,313,6.9,6.9,44,0.00,FEW,,0.00,WeatherDisplay:10.37,2013-01-01 19:28:00,
2013-01-01 14:33:00,22.0,3.4,29.73,West,278,4.0,4.0,44,0.00,FEW,,0.00,WeatherDisplay:10.37,2013-01-01 19:33:00,
2013-01-01 14:38:00,21.6,3.0,29.73,NNW,330,6.9,6.9,44,0.00,FEW,,0.00,WeatherDisplay:10.37,2013-01-01 19:38:00,
2013-01-01 14:43:00,21.7,3.1,29.73,NW,325,4.0,4.0,44,0.00,FEW,,0.00,WeatherDisplay:10.37,2013-01-01 19:43:00,
2013-01-01 14:48:00,21.3,2.7,29.73,NNW,334,9.2,9.2,44,0.00,FEW,,0.00,WeatherDisplay:10.37,2013-01-01 19:48:00,
2013-01-01 14:53:00,21.3,2.7,29.73,WNW,303,8.1,8.1,44,0.00,FEW,,0.00,WeatherDisplay:10.37,2013-01-01 19:53:00,
2013-01-01 14:58:00,21.0,2.5,29.73,NW,308,10.4,10.4,44,0.00,FEW,,0.00,WeatherDisplay:10.37,2013-01-01 19:58:00,
2013-01-01 15:03:00,20.9,2.4,29.75,NW,309,9.2,9.2,44,0.00,FEW,,0.00,WeatherDisplay:10.37,2013-01-01 20:03:00,
2013-01-01 15:08:00,20.9,2.4,29.75,WNW,288,4.6,4.6,44,0.00,FEW,,0.00,WeatherDisplay:10.37,2013-01-01 20:08:00,
2013-01-01 15:13:00,20.6,2.1,29.75,NW,308,8.1,8.1,44,0.00,FEW,,0.00,WeatherDisplay:10.37,2013-01-01 20:13:00,
2013-01-01 15:18:00,20.6,2.1,29.75,WNW,298,4.6,4.6,44,0.00,FEW,,0.00,WeatherDisplay:10.37,2013-01-01 20:18:00,
2013-01-01 15:23:00,20.6,2.1,29.75,WNW,295,9.0,9.0,44,0.00,FEW,,0.00,WeatherDisplay:10.37,2013-01-01 20:23:00,
2013-01-01 15:28:00,20.4,1.9,29.75,NW,307,8.1,8.1,44,0.00,FEW,,0.00,WeatherDisplay:10.37,2013-01-01 20:28:00,
2013-01-01 15:33:00,20.0,1.5,29.75,WNW,288,8.1,8.1,44,0.00,FEW,,0.00,WeatherDisplay:10.37,2013-01-01 20:33:00,
2013-01-01 15:38:00,19.8,1.4,29.75,NW,315,7.0,7.0,44,0.00,FEW,,0.00,WeatherDisplay:10.37,2013-01-01 20:38:00,
2013-01-01 15:43:00,19.7,1.3,29.75,NW,308,11.5,11.5,44,0.00,FEW,,0.00,WeatherDisplay:10.37,2013-01-01 20:43:00,
2013-01-01 15:48:00,19.6,1.2,29.75,NW,323,8.1,8.1,44,0.00,FEW,,0.00,WeatherDisplay:10.37,2013-01-01 20:48:00,
2013-01-01 15:53:00,19.6,1.2,29.75,WNW,303,6.9,6.9,44,0.00,FEW,,0.00,WeatherDisplay:10.37,2013-01-01 20:53:00,
2013-01-01 15:58:00,19.3,0.9,29.75,NNW,336,11.5,11.5,44,0.00,FEW,,0.00,WeatherDisplay:10.37,2013-01-01 20:58:00,
2013-01-01 16:03:00,19.0,1.1,29.77,NW,311,5.0,5.0,45,0.00,SCT,,0.00,WeatherDisplay:10.37,2013-01-01 21:03:00,
2013-01-01 16:08:00,18.8,0.9,29.77,WNW,299,11.5,11.5,45,0.00,SCT,,0.00,WeatherDisplay:10.37,2013-01-01 21:08:00,
2013-01-01 16:13:00,18.4,0.6,29.77,NW,309,6.0,6.0,45,0.00,SCT,,0.00,WeatherDisplay:10.37,2013-01-01 21:13:00,
2013-01-01 16:18:00,18.2,0.4,29.77,NW,316,10.4,10.4,45,0.00,SCT,,0.00,WeatherDisplay:10.37,2013-01-01 21:18:00,
2013-01-01 16:23:00,18.2,0.4,29.77,WNW,295,10.4,10.4,45,0.00,SCT,,0.00,WeatherDisplay:10.37,2013-01-01 21:23:00,
2013-01-01 16:28:00,18.0,0.2,29.77,WNW,302,9.2,9.2,45,0.00,SCT,,0.00,WeatherDisplay:10.37,2013-01-01 21:28:00,
2013-01-01 16:33:00,17.8,0.0,29.77,NW,313,6.0,6.0,45,0.00,SCT,,0.00,WeatherDisplay:10.37,2013-01-01 21:33:00,
2013-01-01 16:38:00,17.5,-0.3,29.77,WNW,303,9.0,9.0,45,0.00,SCT,,0.00,WeatherDisplay:10.37,2013-01-01 21:38:00,
2013-01-01 16:43:00,17.6,-0.2,29.77,WNW,300,5.8,5.8,45,0.00,SCT,,0.00,WeatherDisplay:10.37,2013-01-01 21:43:00,
2013-01-01 16:48:00,17.3,-0.4,29.77,NW,306,8.0,8.0,45,0.00,SCT,,0.00,WeatherDisplay:10.37,2013-01-01 21:48:00,
2013-01-01 16:53:00,17.3,-0.4,29.77,NW,315,6.9,6.9,45,0.00,SCT,,0.00,WeatherDisplay:10.37,2013-01-01 21:53:00,
2013-01-01 16:58:00,17.0,-0.7,29.77,WNW,297,6.9,6.9,45,0.00,SCT,,0.00,WeatherDisplay:10.37,2013-01-01 21:58:00,
2013-01-01 17:03:00,16.9,0.1,29.78,WNW,292,4.6,4.6,47,0.00,CLR,,0.00,WeatherDisplay:10.37,2013-01-01 22:03:00,
2013-01-01 17:08:00,16.8,0.0,29.78,WNW,284,4.6,4.6,47,0.00,CLR,,0.00,WeatherDisplay:10.37,2013-01-01 22:08:00,
2013-01-01 17:13:00,16.7,-0.1,29.78,WNW,301,4.6,4.6,47,0.00,CLR,,0.00,WeatherDisplay:10.37,2013-01-01 22:13:00,
2013-01-01 17:18:00,16.6,-0.2,29.78,NW,309,5.8,5.8,47,0.00,CLR,,0.00,WeatherDisplay:10.37,2013-01-01 22:18:00,
2013-01-01 17:23:00,16.3,-0.4,29.78,NW,321,6.0,6.0,47,0.00,CLR,,0.00,WeatherDisplay:10.37,2013-01-01 22:23:00,
2013-01-01 17:28:00,16.6,-0.2,29.78,NW,305,12.7,12.7,47,0.00,CLR,,0.00,WeatherDisplay:10.37,2013-01-01 22:28:00,
2013-01-01 17:33:00,16.4,-0.3,29.78,WNW,289,8.0,8.0,47,0.00,CLR,,0.00,WeatherDisplay:10.37,2013-01-01 22:33:00,
2013-01-01 17:38:00,16.1,-0.6,29.78,NW,314,5.0,5.0,47,0.00,CLR,,0.00,WeatherDisplay:10.37,2013-01-01 22:38:00,
2013-01-01 17:43:00,16.0,-0.7,29.78,NW,320,3.5,3.5,47,0.00,CLR,,0.00,WeatherDisplay:10.37,2013-01-01 22:43:00,
2013-01-01 17:48:00,15.8,-0.9,29.78,NW,313,5.8,5.8,47,0.00,CLR,,0.00,WeatherDisplay:10.37,2013-01-01 22:48:00,
2013-01-01 17:53:00,15.7,-1.0,29.78,NW,309,3.5,3.5,47,0.00,CLR,,0.00,WeatherDisplay:10.37,2013-01-01 22:53:00,
2013-01-01 17:58:00,15.7,-1.0,29.78,NW,308,4.6,4.6,47,0.00,CLR,,0.00,WeatherDisplay:10.37,2013-01-01 22:58:00,
2013-01-01 18:03:00,15.4,-0.4,29.81,NW,308,4.6,4.6,49,0.00,CLR,,0.00,WeatherDisplay:10.37,2013-01-01 23:03:00,
2013-01-01 18:08:00,15.3,-0.5,29.81,NW,309,3.5,3.5,49,0.00,CLR,,0.00,WeatherDisplay:10.37,2013-01-01 23:08:00,
2013-01-01 18:13:00,15.1,-0.7,29.81,NW,308,3.5,3.5,49,0.00,CLR,,0.00,WeatherDisplay:10.37,2013-01-01 23:13:00,
2013-01-01 18:18:00,15.1,-0.7,29.81,NW,308,3.5,3.5,49,0.00,CLR,,0.00,WeatherDisplay:10.37,2013-01-01 23:18:00,
2013-01-01 18:23:00,14.9,-0.8,29.81,NW,308,3.5,3.5,49,0.00,CLR,,0.00,WeatherDisplay:10.37,2013-01-01 23:23:00,
2013-01-01 18:28:00,14.7,-1.0,29.81,NNW,330,3.5,3.5,49,0.00,CLR,,0.00,WeatherDisplay:10.37,2013-01-01 23:28:00,
2013-01-01 18:33:00,14.6,-1.1,29.81,NNW,328,3.5,3.5,49,0.00,CLR,,0.00,WeatherDisplay:10.37,2013-01-01 23:33:00,
2013-01-01 18:38:00,14.6,-1.1,29.81,NW,316,4.6,4.6,49,0.00,CLR,,0.00,WeatherDisplay:10.37,2013-01-01 23:38:00,
2013-01-01 18:43:00,14.4,-1.3,29.81,NW,311,3.5,3.5,49,0.00,CLR,,0.00,WeatherDisplay:10.37,2013-01-01 23:43:00,
2013-01-01 18:48:00,14.5,-1.2,29.81,NW,308,4.0,4.0,49,0.00,CLR,,0.00,WeatherDisplay:10.37,2013-01-01 23:48:00,
2013-01-01 18:53:00,14.6,-1.1,29.81,WNW,293,6.9,6.9,49,0.00,CLR,,0.00,WeatherDisplay:10.37,2013-01-01 23:53:00,
2013-01-01 18:58:00,14.2,-1.5,29.81,WNW,294,4.6,4.6,49,0.00,CLR,,0.00,WeatherDisplay:10.37,2013-01-01 23:58:00,
2013-01-01 19:03:00,14.1,-0.7,29.86,NW,310,3.5,3.5,51,0.00,CLR,,0.00,WeatherDisplay:10.37,2013-01-02 00:03:00,
2013-01-01 19:08:00,13.9,-0.9,29.86,NW,310,2.3,2.3,51,0.00,CLR,,0.00,WeatherDisplay:10.37,2013-01-02 00:08:00,
2013-01-01 19:13:00,14.1,-0.7,29.86,WNW,289,5.8,5.8,51,0.00,CLR,,0.00,WeatherDisplay:10.37,2013-01-02 00:13:00,
2013-01-01 19:18:00,14.1,-0.7,29.86,WNW,287,4.6,4.6,51,0.00,CLR,,0.00,WeatherDisplay:10.37,2013-01-02 00:18:00,
2013-01-01 19:23:00,14.1,-0.7,29.86,NW,311,5.8,5.8,51,0.00,CLR,,0.00,WeatherDisplay:10.37,2013-01-02 00:23:00,
2013-01-01 19:28:00,14.0,-0.8,29.86,WNW,290,6.9,6.9,51,0.00,CLR,,0.00,WeatherDisplay:10.37,2013-01-02 00:28:00,
2013-01-01 19:33:00,13.9,-0.9,29.86,WNW,295,3.5,3.5,51,0.00,CLR,,0.00,WeatherDisplay:10.37,2013-01-02 00:33:00,
2013-01-01 19:38:00,13.8,-1.0,29.86,WNW,290,4.6,4.6,51,0.00,CLR,,0.00,WeatherDisplay:10.37,2013-01-02 00:38:00,
2013-01-01 19:43:00,13.6,-1.2,29.86,WNW,302,3.5,3.5,51,0.00,CLR,,0.00,WeatherDisplay:10.37,2013-01-02 00:43:00,
2013-01-01 19:48:00,13.6,-1.2,29.86,WNW,299,6.9,6.9,51,0.00,CLR,,0.00,WeatherDisplay:10.37,2013-01-02 00:48:00,
2013-01-01 19:53:00,13.4,-1.4,29.86,NW,309,3.5,3.5,51,0.00,CLR,,0.00,WeatherDisplay:10.37,2013-01-02 00:53:00,
2013-01-01 19:58:00,13.3,-1.5,29.86,NW,315,4.0,4.0,51,0.00,CLR,,0.00,WeatherDisplay:10.37,2013-01-02 00:58:00,
2013-01-01 20:03:00,13.1,-0.1,29.88,West,275,4.6,4.6,55,0.00,CLR,,0.00,WeatherDisplay:10.37,2013-01-02 01:03:00,
2013-01-01 20:08:00,13.2,0.0,29.88,WNW,287,4.6,4.6,55,0.00,CLR,,0.00,WeatherDisplay:10.37,2013-01-02 01:08:00,
2013-01-01 20:13:00,13.0,-0.2,29.88,NW,309,3.5,3.5,55,0.00,CLR,,0.00,WeatherDisplay:10.37,2013-01-02 01:13:00,
2013-01-01 20:18:00,13.0,-0.2,29.88,WNW,290,3.5,3.5,55,0.00,CLR,,0.00,WeatherDisplay:10.37,2013-01-02 01:18:00,
2013-01-01 20:23:00,12.6,-0.5,29.88,WNW,289,3.0,3.0,55,0.00,CLR,,0.00,WeatherDisplay:10.37,2013-01-02 01:23:00,
2013-01-01 20:28:00,12.9,-0.3,29.88,WNW,290,3.5,3.5,55,0.00,CLR,,0.00,WeatherDisplay:10.37,2013-01-02 01:28:00,
2013-01-01 20:33:00,12.4,-0.7,29.88,WNW,289,2.0,2.0,55,0.00,CLR,,0.00,WeatherDisplay:10.37,2013-01-02 01:33:00,
2013-01-01 20:38:00,12.5,-0.6,29.88,WSW,250,2.3,2.3,55,0.00,CLR,,0.00,WeatherDisplay:10.37,2013-01-02 01:38:00,
2013-01-01 20:43:00,12.3,-0.8,29.88,WSW,251,2.3,2.3,55,0.00,CLR,,0.00,WeatherDisplay:10.37,2013-01-02 01:43:00,
2013-01-01 20:48:00,11.9,-1.2,29.88,WSW,251,3.0,3.0,55,0.00,CLR,,0.00,WeatherDisplay:10.37,2013-01-02 01:48:00,
2013-01-01 20:53:00,12.0,-1.1,29.88,WSW,252,2.3,2.3,55,0.00,CLR,,0.00,WeatherDisplay:10.37,2013-01-02 01:53:00,
2013-01-01 20:58:00,11.7,-1.4,29.88,WSW,254,2.3,2.3,55,0.00,CLR,,0.00,WeatherDisplay:10.37,2013-01-02 01:58:00,
2013-01-01 21:03:00,11.9,-1.2,29.88,West,259,4.0,4.0,55,0.00,CLR,,0.00,WeatherDisplay:10.37,2013-01-02 02:03:00,
2013-01-01 21:08:00,11.9,-1.2,29.88,West,264,1.1,1.1,55,0.00,CLR,,0.00,WeatherDisplay:10.37,2013-01-02 02:08:00,
2013-01-01 21:13:00,11.5,-2.3,29.88,WSW,258,1.1,1.1,53,0.00,CLR,,0.00,WeatherDisplay:10.37,2013-01-02 02:13:00,
2013-01-01 21:18:00,11.5,-2.3,29.88,WSW,258,2.3,2.3,53,0.00,CLR,,0.00,WeatherDisplay:10.37,2013-01-02 02:18:00,
2013-01-01 21:23:00,11.6,-2.3,29.88,West,259,3.5,3.5,53,0.00,CLR,,0.00,WeatherDisplay:10.37,2013-01-02 02:23:00,
2013-01-01 21:28:00,11.5,-2.3,29.88,West,269,2.3,2.3,53,0.00,CLR,,0.00,WeatherDisplay:10.37,2013-01-02 02:28:00,
2013-01-01 21:33:00,11.4,-2.4,29.88,West,269,3.5,3.5,53,0.00,CLR,,0.00,WeatherDisplay:10.37,2013-01-02 02:33:00,
2013-01-01 21:38:00,10.8,-3.0,29.88,West,269,2.3,2.3,53,0.00,CLR,,0.00,WeatherDisplay:10.37,2013-01-02 02:38:00,
2013-01-01 21:43:00,11.0,-2.8,29.88,West,269,3.5,3.5,53,0.00,CLR,,0.00,WeatherDisplay:10.37,2013-01-02 02:43:00,
2013-01-01 21:48:00,11.0,-2.8,29.88,WNW,285,3.5,3.5,53,0.00,CLR,,0.00,WeatherDisplay:10.37,2013-01-02 02:48:00,
2013-01-01 21:53:00,10.7,-3.1,29.88,WNW,285,3.5,3.5,53,0.00,CLR,,0.00,WeatherDisplay:10.37,2013-01-02 02:53:00,
2013-01-01 21:58:00,10.4,-3.4,29.88,NW,307,2.3,2.3,53,0.00,CLR,,0.00,WeatherDisplay:10.37,2013-01-02 02:58:00,
2013-01-01 22:03:00,10.3,-3.5,29.88,NW,307,2.3,2.3,53,0.00,CLR,,0.00,WeatherDisplay:10.37,2013-01-02 03:03:00,
2013-01-01 22:08:00,10.3,-3.5,29.88,NW,307,2.3,2.3,53,0.00,CLR,,0.00,WeatherDisplay:10.37,2013-01-02 03:08:00,
2013-01-01 22:13:00,10.2,-3.6,29.89,WNW,292,3.5,3.5,53,0.00,CLR,,0.00,WeatherDisplay:10.37,2013-01-02 03:13:00,
2013-01-01 22:18:00,10.1,-3.7,29.89,WNW,292,3.5,3.5,53,0.00,CLR,,0.00,WeatherDisplay:10.37,2013-01-02 03:18:00,
2013-01-01 22:23:00,9.8,-3.9,29.89,WNW,292,2.3,2.3,53,0.00,CLR,,0.00,WeatherDisplay:10.37,2013-01-02 03:23:00,
2013-01-01 22:28:00,9.8,-3.9,29.89,WNW,292,2.3,2.3,53,0.00,CLR,,0.00,WeatherDisplay:10.37,2013-01-02 03:28:00,
2013-01-01 22:33:00,9.8,-3.9,29.89,North,0,2.3,2.3,53,0.00,CLR,,0.00,WeatherDisplay:10.37,2013-01-02 03:33:00,
2013-01-01 22:38:00,10.0,-3.8,29.89,NW,322,3.5,3.5,53,0.00,CLR,,0.00,WeatherDisplay:10.37,2013-01-02 03:38:00,
2013-01-01 22:43:00,10.3,-3.5,29.89,WNW,288,5.8,5.8,53,0.00,CLR,,0.00,WeatherDisplay:10.37,2013-01-02 03:43:00,
2013-01-01 22:48:00,10.2,-3.6,29.89,WNW,298,3.5,3.5,53,0.00,CLR,,0.00,WeatherDisplay:10.37,2013-01-02 03:48:00,
2013-01-01 22:53:00,10.2,-3.6,29.89,WNW,298,3.5,3.5,53,0.00,CLR,,0.00,WeatherDisplay:10.37,2013-01-02 03:53:00,
2013-01-01 22:58:00,10.1,-3.7,29.89,WNW,297,3.5,3.5,53,0.00,CLR,,0.00,WeatherDisplay:10.37,2013-01-02 03:58:00,
2013-01-01 23:03:00,10.1,-3.7,29.89,NW,313,3.5,3.5,53,0.00,CLR,,0.00,WeatherDisplay:10.37,2013-01-02 04:03:00,
2013-01-01 23:08:00,9.8,-3.9,29.89,NW,313,3.5,3.5,53,0.00,CLR,,0.00,WeatherDisplay:10.37,2013-01-02 04:08:00,
2013-01-01 23:13:00,9.7,-3.3,29.91,NW,313,3.5,3.5,55,0.00,CLR,,0.00,WeatherDisplay:10.37,2013-01-02 04:13:00,
2013-01-01 23:18:00,9.6,-3.3,29.91,NW,313,3.5,3.5,55,0.00,CLR,,0.00,WeatherDisplay:10.37,2013-01-02 04:18:00,
2013-01-01 23:23:00,9.5,-3.4,29.91,NW,313,2.3,2.3,55,0.00,CLR,,0.00,WeatherDisplay:10.37,2013-01-02 04:23:00,
2013-01-01 23:28:00,9.3,-3.6,29.91,NW,313,2.3,2.3,55,0.00,CLR,,0.00,WeatherDisplay:10.37,2013-01-02 04:28:00,
2013-01-01 23:33:00,9.4,-3.5,29.91,NW,313,2.3,2.3,55,0.00,CLR,,0.00,WeatherDisplay:10.37,2013-01-02 04:33:00,
2013-01-01 23:38:00,9.0,-3.9,29.91,NW,313,2.3,2.3,55,0.00,CLR,,0.00,WeatherDisplay:10.37,2013-01-02 04:38:00,
2013-01-01 23:43:00,8.9,-4.0,29.91,NW,313,2.3,2.3,55,0.00,CLR,,0.00,WeatherDisplay:10.37,2013-01-02 04:43:00,
2013-01-01 23:48:00,8.6,-4.3,29.91,NW,313,2.3,2.3,55,0.00,CLR,,0.00,WeatherDisplay:10.37,2013-01-02 04:48:00,
2013-01-01 23:53:00,8.5,-4.4,29.91,NW,313,2.3,2.3,55,0.00,CLR,,0.00,WeatherDisplay:10.37,2013-01-02 04:53:00,
2013-01-01 23:58:00,8.2,-4.7,29.91,NW,313,2.3,2.3,55,0.00,CLR,,0.00,WeatherDisplay:10.37,2013-01-02 04:58:00,